Flight Track Log - Related Links

Times and Time Zones

All times are in EDT time to prevent confusion due to time zone crossing. See the UAL326 flight status page for this flight to view local times or setup timezone preferences in your user account.


Time Position Orientation Groundspeed Altitude Reporting Facility
EDT Latitude Longitude Course Direction KTS MPH feet Rate Location/Type
Mon 02:14:40 PM 28.4167 -81.3167 350° North 166 191 500  Level Orlando TRACON
Mon 02:15:47 PM 28.3667 -81.3500 210° Southwest 220 253 2,300 2,079 Climbing Orlando TRACON
Mon 02:16:47 PM 28.3500 -81.4167 254° West 283 326 4,900 2,900 Climbing Orlando TRACON
Mon 02:17:00 PM 28.7698 -81.3500 North  Level FlightAware Approximate
Mon 02:17:47 PM 28.3667 -81.5000 283° West 281 323 8,100  Level Orlando TRACON
Mon 02:18:00 PM 28.8900 -81.3613 350° North  Level FlightAware Approximate
Mon 02:18:47 PM 28.4500 -81.5000 360° North 299 344 10,600  Level Orlando TRACON
Mon 02:19:00 PM 29.0104 -81.3688 350° North  Level FlightAware Approximate
Mon 02:20:20 PM 28.5831 -81.5286 349° North 342 394 14,500  Level Jacksonville Center
Mon 02:21:20 PM 28.6814 -81.5461 351° North 342 394 16,000 1,650 Climbing Jacksonville Center
Mon 02:22:20 PM 28.7836 -81.5614 353° North 349 402 17,800 1,900 Climbing Jacksonville Center
Mon 02:23:20 PM 28.8903 -81.5858 349° North 375 432 19,800 1,750 Climbing Jacksonville Center
Mon 02:24:20 PM 28.9867 -81.6083 348° North 382 440 21,300 1,600 Climbing Jacksonville Center
Mon 02:25:20 PM 29.0975 -81.6356 348° North 393 452 23,000 1,600 Climbing Jacksonville Center
Mon 02:26:20 PM 29.2253 -81.6647 349° North 403 464 24,500 1,450 Climbing Jacksonville Center
Mon 02:27:20 PM 29.3442 -81.6800 354° North 415 478 25,900 1,150 Climbing Jacksonville Center
Mon 02:28:20 PM 29.4656 -81.6928 355° North 427 491 26,800 1,050 Climbing Jacksonville Center
Mon 02:29:20 PM 29.5931 -81.7056 355° North 439 505 28,000 1,150 Climbing Jacksonville Center
Mon 02:30:20 PM 29.7203 -81.7208 354° North 451 519 29,100 1,050 Climbing Jacksonville Center
Mon 02:31:20 PM 29.8500 -81.7336 355° North 457 526 30,100 1,150 Climbing Jacksonville Center
Mon 02:32:20 PM 29.9836 -81.7464 355° North 465 535 31,400 1,311 Climbing Jacksonville Center
Mon 02:33:19 PM 30.0986 -81.7544 357° North 465 535 32,700 1,200 Climbing Jacksonville Center
Mon 02:34:20 PM 30.2261 -81.7700 354° North 460 529 33,800 992 Climbing Jacksonville Center
Mon 02:35:20 PM 30.3578 -81.7828 355° North 460 529 34,700 600 Climbing Jacksonville Center
Mon 02:36:20 PM 30.4853 -81.7958 355° North 465 535 35,000 150 Climbing Jacksonville Center
Mon 02:37:20 PM 30.6147 -81.8161 352° North 460 529 35,000  Level Jacksonville Center
Mon 02:38:20 PM 30.7444 -81.8292 355° North 465 535 35,000  Level Jacksonville Center
Mon 02:39:20 PM 30.8739 -81.8444 354° North 465 535 35,000  Level Jacksonville Center
Mon 02:40:20 PM 30.9994 -81.8600 354° North 465 535 35,000  Level Jacksonville Center
Mon 02:41:20 PM 31.1289 -81.8733 355° North 465 535 35,000  Level Jacksonville Center
Mon 02:42:20 PM 31.2564 -81.8889 354° North 465 535 35,000  Level Jacksonville Center
Mon 02:43:20 PM 31.3942 -81.8994 356° North 458 527 35,000  Level Jacksonville Center
Mon 02:44:20 PM 31.5114 -81.9131 354° North 452 520 35,000  Level Jacksonville Center
Mon 02:45:20 PM 31.6492 -81.9286 355° North 459 528 35,000  Level Jacksonville Center
Mon 02:47:56 PM 31.9756 -81.9675 354° North 465 535 35,000  Level Atlanta Center
Mon 02:48:56 PM 32.1008 -81.9817 355° North 460 529 35,000  Level Atlanta Center
Mon 02:49:56 PM 32.2431 -81.9958 355° North 448 516 35,000  Level Atlanta Center
Mon 02:50:56 PM 32.3706 -82.0075 356° North 448 516 35,000  Level Atlanta Center
Mon 02:51:56 PM 32.5025 -82.0242 354° North 455 524 35,000  Level Atlanta Center
Mon 02:52:56 PM 32.6300 -82.0361 355° North 460 529 35,000  Level Atlanta Center
Mon 02:53:56 PM 32.7575 -82.0553 353° North 460 529 35,000  Level Atlanta Center
Mon 02:54:56 PM 32.8850 -82.0672 356° North 465 535 35,000 100 Level Atlanta Center
Mon 02:55:56 PM 33.0125 -82.0819 354° North 465 535 35,200 450 Climbing Atlanta Center
Mon 02:56:56 PM 33.1403 -82.0964 355° North 460 529 35,900 750 Climbing Atlanta Center
Mon 02:57:56 PM 33.2697 -82.1133 354° North 465 535 36,700 550 Climbing Atlanta Center
Mon 02:58:56 PM 33.3953 -82.1256 355° North 459 528 37,000 150 Climbing Atlanta Center
Mon 02:59:56 PM 33.5250 -82.1400 355° North 459 528 37,000  Level Atlanta Center
Mon 03:00:56 PM 33.6544 -82.1547 355° North 465 535 37,000  Level Atlanta Center
Mon 03:01:56 PM 33.7714 -82.1469 North 465 535 37,000  Level Atlanta Center
Mon 03:02:56 PM 33.8983 -82.1267 North 458 527 37,000  Level Atlanta Center
Mon 03:03:56 PM 34.0253 -82.1064 North 458 527 37,000  Level Atlanta Center
Mon 03:04:56 PM 34.1503 -82.0833 North 458 527 37,000  Level Atlanta Center
Mon 03:05:56 PM 34.2750 -82.0631 North 458 527 37,000  Level Atlanta Center
Mon 03:06:56 PM 34.3978 -82.0375 10° North 453 521 37,000  Level Atlanta Center
Mon 03:07:56 PM 34.5228 -82.0194 North 448 516 37,000  Level Atlanta Center
Mon 03:08:56 PM 34.6456 -81.9961 North 448 516 37,000  Level Atlanta Center
Mon 03:09:56 PM 34.7744 -81.9728 North 448 516 37,000  Level Atlanta Center
Mon 03:10:56 PM 34.8994 -81.9544 North 448 516 37,000  Level Atlanta Center
Mon 03:11:56 PM 35.0389 -81.9383 North 453 521 37,000  Level Atlanta Center
Mon 03:12:56 PM 35.1664 -81.9478 357° North 453 521 37,000  Level Atlanta Center
Mon 03:13:56 PM 35.2917 -81.9625 355° North 458 527 37,000  Level Atlanta Center
Mon 03:14:56 PM 35.4025 -81.9775 354° North 458 527 37,000  Level Atlanta Center
Mon 03:15:56 PM 35.5281 -81.9922 355° North 458 527 37,000  Level Atlanta Center
Mon 03:16:56 PM 35.6533 -82.0044 355° North 458 527 37,000  Level Atlanta Center
Mon 03:17:56 PM 35.7789 -82.0217 354° North 453 521 37,000  Level Atlanta Center
Mon 03:18:56 PM 35.9147 -82.0389 354° North 453 521 37,000  Level Atlanta Center
Mon 03:19:56 PM 36.0381 -82.0539 354° North 448 516 37,000  Level Atlanta Center
Mon 03:20:56 PM 36.1614 -82.0661 355° North 446 513 37,000  Level Atlanta Center
Mon 03:21:56 PM 36.2700 -82.0789 355° North 446 513 37,000  Level Atlanta Center
Mon 03:22:56 PM 36.3953 -82.0914 355° North 446 513 37,000  Level Atlanta Center
Mon 03:23:56 PM 36.5186 -82.1092 353° North 446 513 37,000  Level Atlanta Center
Mon 03:24:51 PM 36.6375 -82.1247 354° North 444 511 37,000  Level Indianapolis Center
Mon 03:25:54 PM 36.7628 -82.1403 354° North 449 517 37,000  Level Indianapolis Center
Mon 03:26:56 PM 36.8897 -82.1567 354° North 457 526 37,000  Level Indianapolis Center
Mon 03:27:58 PM 37.0342 -82.1744 354° North 451 519 37,000  Level Indianapolis Center
Mon 03:29:00 PM 37.1600 -82.1631 North 453 521 37,000  Level Indianapolis Center
Mon 03:30:02 PM 37.2836 -82.1228 15° North 459 528 37,000  Level Indianapolis Center
Mon 03:31:04 PM 37.4069 -82.0833 14° North 458 527 37,000  Level Indianapolis Center
Mon 03:32:06 PM 37.5303 -82.0433 14° North 458 527 37,000  Level Indianapolis Center
Mon 03:33:08 PM 37.6728 -81.9947 15° North 455 524 37,000  Level Indianapolis Center
Mon 03:34:10 PM 37.7961 -81.9547 14° North 456 525 37,000  Level Indianapolis Center
Mon 03:35:12 PM 37.9208 -81.9133 15° North 458 527 37,000  Level Indianapolis Center
Mon 03:36:14 PM 38.0436 -81.8722 15° North 456 525 37,000  Level Indianapolis Center
Mon 03:37:16 PM 38.1669 -81.8317 14° North 456 525 37,000 -242 Level Indianapolis Center
Mon 03:38:18 PM 38.2653 -81.7369 37° Northeast 459 528 36,500 -484 Descending Indianapolis Center
Mon 03:39:20 PM 38.2961 -81.5561 78° East 445 512 36,000 -581 Descending Indianapolis Center
Mon 03:40:22 PM 38.2994 -81.4008 88° East 445 512 35,300 -774 Descending Indianapolis Center
Mon 03:41:24 PM 38.3042 -81.2469 88° East 440 506 34,400 -919 Descending Indianapolis Center
Mon 03:42:26 PM 38.3075 -81.0872 88° East 452 520 33,400 -677 Descending Indianapolis Center
Mon 03:43:28 PM 38.3122 -80.9294 88° East 449 517 33,000 -192 Descending Indianapolis Center
Mon 03:44:31 PM 38.3153 -80.7711 89° East 448 516 33,000  Level Indianapolis Center
Mon 03:45:33 PM 38.3100 -80.5828 92° East 447 514 33,000  Level Indianapolis Center
Mon 03:46:23 PM 38.3072 -80.4817 92° East 443 510 33,000  Level Washington Center
Mon 03:47:20 PM 38.3328 -80.3139 79° East 443 510 33,000  Level Washington Center
Mon 03:48:21 PM 38.3594 -80.1622 77° East 443 510 33,000 -49 Level Washington Center
Mon 03:49:22 PM 38.3922 -80.0106 75° East 443 510 32,900 -1,190 Descending Washington Center
Mon 03:50:22 PM 38.4269 -79.8589 74° East 443 510 30,600 -2,250 Descending Washington Center
Mon 03:51:22 PM 38.4675 -79.7100 71° East 448 516 28,400 -2,339 Descending Washington Center
Mon 03:52:20 PM 38.5197 -79.5828 62° Northeast 448 516 26,000 -2,168 Descending Washington Center
Mon 03:53:21 PM 38.5722 -79.4475 64° Northeast 438 504 24,100 -984 Descending Washington Center
Mon 03:54:22 PM 38.6242 -79.3200 62° Northeast 420 483 24,000 -98 Descending Washington Center
Mon 03:55:23 PM 38.6850 -79.1689 63° Northeast 420 483 23,900 -1,271 Descending Washington Center
Mon 03:56:20 PM 38.7367 -79.0436 62° Northeast 415 478 21,500 -2,821 Descending Washington Center
Mon 03:57:20 PM 38.7653 -78.9172 74° East 391 450 18,400 -2,926 Descending Washington Center
Mon 03:58:21 PM 38.7583 -78.7864 94° East 356 410 15,600 -2,213 Descending Washington Center
Mon 03:59:22 PM 38.7514 -78.6608 94° East 356 410 13,900 -1,835 Descending Washington Center
Mon 04:00:22 PM 38.7417 -78.5408 96° East 356 410 11,900 -1,450 Descending Washington Center
Mon 04:01:22 PM 38.7342 -78.4233 95° East 346 398 11,000 -712 Descending Washington Center
Mon 04:02:20 PM 38.7656 -78.3286 67° East 296 341 10,500 -763 Descending Washington Center
Mon 04:03:20 PM 38.8236 -78.2508 46° Northeast 279 321 9,500 -1,041 Descending Washington Center
Mon 04:04:21 PM 38.8650 -78.1617 59° Northeast 284 327 8,400 -1,240 Descending Washington Center
Mon 04:05:21 PM 38.8900 -78.0639 72° East 284 327 7,000 -1,050 Descending Washington Center
Mon 04:06:21 PM 38.9150 -77.9686 71° East 279 321 6,300 -504 Descending Washington Center
Mon 04:07:20 PM 38.9331 -77.8919 73° East 279 321 6,000 -150 Descending Washington Center
Mon 04:08:21 PM 38.9622 -77.7781 72° East 284 327 6,000  Level Washington Center
Mon 04:09:22 PM 38.9578 -77.6792 93° East 278 320 6,000  Level Washington Center
Mon 04:10:39 PM 39.0000 -77.5833 60° Northeast 286 329 6,000  Level Potomac TRACON
Mon 04:11:39 PM 39.0833 -77.5667 North 261 300 6,000  Level Potomac TRACON
Mon 04:12:39 PM 39.1500 -77.5667 360° North 230 265 6,000 53 Level Potomac TRACON
Mon 04:13:33 PM 39.1833 -77.5333 38° Northeast 224 258 6,100 -789 Climbing Potomac TRACON
Mon 04:14:33 PM 39.1667 -77.4667 108° East 196 226 4,500 -1,500 Descending Potomac TRACON
Mon 04:15:33 PM 39.1167 -77.4500 165° South 178 205 3,100 -1,400 Descending Potomac TRACON

Login

Don't have an account? Register now (free) for customized features, flight alerts, and more!